Weather in Shahuniya

Russia / Nizhny Novgorod Oblast'     57°40′34″N   46°36′46″E
temp.,
°C
wind,
m/s
gust,
m/s
humid.,
%
clouds,
%
prec.,
mm/h
press.,
hPa
HPBL,
m
14 may, fri
fri1400:00+15sse4138645 0.3 1019342
03:00+13sse389313 0.3 1019168
06:00+16sw2390100 0.3 1019163
09:00+19sse2375100 0.3 1019585
12:00+22sse2363100 0.0 10191118
15:00+23s345995 0.2 10171283
18:00+21w237676 1.5 101776
21:00+16sw2288100 1.6 101722
15 may, sat
sat1500:00+15wsw2393100 0.0 101751
03:00+15ese229262 0.0 101715
06:00+16se3790100 0.0 1017197
09:00+21sse4671100 0.1 1016554
12:00+26s565597 0.0 10141110
15:00+27s69515 0.0 10131889
18:00+23ssw611584 0.0 1012729
21:00+17ssw388692 1.0 1014140
16 may, sun
sun1600:00+16ssw36917 1.1 1014120
03:00+15s359384 1.1 101479
06:00+17s3686100 0.0 1014205
09:00+21sw4672100 0.0 1014599
12:00+24sw5854100 0.0 10141593
15:00+23sw4761100 0.1 10141044
18:00+19sw4107838 2.0 1013300
21:00+16ssw39888 2.4 1014149
17 may, mon
mon1700:00+14sw38920 0.0 1015148
03:00+13wsw239069 0.0 101649
06:00+15sw2586100 0.0 1017178
09:00+19sw3567100 0.0 1018589
12:00+22wsw355598 0.0 10181254
15:00+24wsw35485 0.0 10171650
18:00+23ssw116181 0.0 101618
21:00+18ese227316 0.0 101611
18 may, tue
tue1800:00+16se338480 0.1 101649
03:00+15sse23929 0.3 101636
06:00+18se2384100 0.0 1016105
09:00+23sse34586 0.0 1016437
12:00+27sse453913 0.0 10151025
15:00+28sse47395 0.0 10152763
18:00+24sse37527 0.0 1014169
21:00+18se475916 0.0 101488